Time,TemperatureF,DewpointF,PressureIn,WindDirection,WindDirectionDegrees,WindSpeedMPH,WindSpeedGustMPH,Humidity,HourlyPrecipIn,Conditions,Clouds,dailyrainin,SoftwareType,DateUTC
2013-06-19 00:01:00,65.0,52.0,30.08,ESE,105,0.0,5.0,62,0.00,,,0.12,,2013-06-19 05:01:00,
2013-06-19 00:11:00,65.0,52.0,30.08,ESE,105,0.0,5.0,62,0.00,,,0.12,,2013-06-19 05:11:00,
2013-06-19 00:22:00,64.0,52.0,30.08,East,93,0.0,0.0,66,0.00,,,0.12,,2013-06-19 05:22:00,
2013-06-19 00:32:00,64.0,53.0,30.05,ESE,105,0.0,0.0,67,0.00,,,0.12,,2013-06-19 05:32:00,
2013-06-19 00:42:00,64.0,53.0,30.05,ESE,105,0.0,0.0,67,0.00,,,0.12,,2013-06-19 05:42:00,
2013-06-19 00:52:00,63.0,52.0,30.08,ENE,60,0.0,3.0,68,0.00,,,0.12,,2013-06-19 05:52:00,
2013-06-19 01:02:00,64.0,53.0,30.08,East,79,3.0,8.0,68,0.00,,,0.12,,2013-06-19 06:02:00,
2013-06-19 01:11:00,64.0,53.0,30.08,East,79,3.0,8.0,68,0.00,,,0.12,,2013-06-19 06:11:00,
2013-06-19 01:22:00,64.0,53.0,30.08,ESE,102,0.0,3.0,68,0.00,,,0.12,,2013-06-19 06:22:00,
2013-06-19 01:33:00,64.0,53.0,30.08,East,95,4.0,6.0,68,0.00,,,0.12,,2013-06-19 06:33:00,
2013-06-19 01:42:00,63.0,52.0,30.08,SE,146,0.0,0.0,68,0.00,,,0.12,,2013-06-19 06:42:00,
2013-06-19 01:52:00,63.0,52.0,30.08,ESE,119,0.0,4.0,68,0.00,,,0.12,,2013-06-19 06:52:00,
2013-06-19 02:01:00,64.0,53.0,30.08,ESE,104,0.0,5.0,67,0.00,,,0.12,,2013-06-19 07:01:00,
2013-06-19 02:11:00,63.0,52.0,30.08,East,94,6.0,6.0,68,0.00,,,0.12,,2013-06-19 07:11:00,
2013-06-19 02:22:00,63.0,53.0,30.08,ESE,111,4.0,6.0,69,0.00,,,0.12,,2013-06-19 07:22:00,
2013-06-19 02:33:00,62.0,52.0,30.08,ESE,111,0.0,0.0,70,0.00,,,0.12,,2013-06-19 07:33:00,
2013-06-19 02:43:00,62.0,52.0,30.08,East,100,0.0,4.0,70,0.00,,,0.12,,2013-06-19 07:43:00,
2013-06-19 02:53:00,62.0,52.0,30.08,ESE,120,3.0,4.0,70,0.00,,,0.12,,2013-06-19 07:53:00,
2013-06-19 03:02:00,62.0,52.0,30.08,ESE,110,0.0,6.0,71,0.00,,,0.12,,2013-06-19 08:02:00,
2013-06-19 03:11:00,62.0,52.0,30.08,East,91,0.0,0.0,71,0.00,,,0.12,,2013-06-19 08:11:00,
2013-06-19 03:22:00,61.0,52.0,30.08,ESE,112,0.0,0.0,71,0.00,,,0.12,,2013-06-19 08:22:00,
2013-06-19 03:33:00,61.0,52.0,30.08,ESE,120,0.0,5.0,71,0.00,,,0.12,,2013-06-19 08:33:00,
2013-06-19 03:43:00,61.0,52.0,30.08,SE,128,4.0,6.0,72,0.00,,,0.12,,2013-06-19 08:43:00,
2013-06-19 03:53:00,61.0,52.0,30.08,ENE,71,5.0,6.0,71,0.00,,,0.12,,2013-06-19 08:53:00,
2013-06-19 04:02:00,61.0,52.0,30.08,ENE,71,5.0,6.0,71,0.00,,,0.12,,2013-06-19 09:02:00,
2013-06-19 04:11:00,61.0,52.0,30.08,ESE,103,4.0,6.0,72,0.00,,,0.12,,2013-06-19 09:11:00,
2013-06-19 04:22:00,61.0,52.0,30.08,ESE,103,4.0,6.0,72,0.00,,,0.12,,2013-06-19 09:22:00,
2013-06-19 04:34:00,61.0,52.0,30.05,ESE,111,4.0,8.0,72,0.00,,,0.12,,2013-06-19 09:34:00,
2013-06-19 04:43:00,60.0,51.0,30.08,SSE,147,0.0,6.0,72,0.00,,,0.12,,2013-06-19 09:43:00,
2013-06-19 04:53:00,60.0,51.0,30.08,East,82,0.0,0.0,73,0.00,,,0.12,,2013-06-19 09:53:00,
2013-06-19 05:02:00,60.0,51.0,30.08,ESE,111,0.0,0.0,72,0.00,,,0.12,,2013-06-19 10:02:00,
2013-06-19 05:12:00,60.0,51.0,30.08,ENE,70,5.0,6.0,72,0.00,,,0.12,,2013-06-19 10:12:00,
2013-06-19 05:22:00,60.0,51.0,30.08,ESE,112,0.0,6.0,72,0.00,,,0.12,,2013-06-19 10:22:00,
2013-06-19 05:33:00,60.0,51.0,30.08,ESE,112,0.0,6.0,72,0.00,,,0.12,,2013-06-19 10:33:00,
2013-06-19 05:42:00,60.0,51.0,30.08,SSE,152,0.0,9.0,72,0.00,,,0.12,,2013-06-19 10:42:00,
2013-06-19 05:52:00,60.0,51.0,30.08,ESE,119,0.0,3.0,72,0.00,,,0.12,,2013-06-19 10:52:00,
2013-06-19 06:02:00,60.0,51.0,30.08,ESE,105,0.0,4.0,73,0.00,,,0.12,,2013-06-19 11:02:00,
2013-06-19 06:11:00,60.0,51.0,30.11,SSW,200,0.0,4.0,72,0.00,,,0.12,,2013-06-19 11:11:00,
2013-06-19 06:22:00,60.0,51.0,30.11,SSW,192,0.0,0.0,72,0.00,,,0.12,,2013-06-19 11:22:00,
2013-06-19 06:33:00,60.0,51.0,30.11,ESE,104,5.0,5.0,72,0.00,,,0.12,,2013-06-19 11:33:00,
2013-06-19 06:42:00,60.0,51.0,30.11,ESE,104,5.0,5.0,72,0.00,,,0.12,,2013-06-19 11:42:00,
2013-06-19 06:54:00,60.0,51.0,30.11,ESE,104,5.0,5.0,72,0.00,,,0.12,,2013-06-19 11:54:00,
2013-06-19 07:01:00,60.0,51.0,30.11,ESE,104,5.0,5.0,72,0.00,,,0.12,,2013-06-19 12:01:00,
2013-06-19 07:12:00,61.0,49.0,30.11,SE,125,6.0,6.0,65,0.00,,,0.12,,2013-06-19 12:12:00,
2013-06-19 07:22:00,61.0,49.0,30.11,SE,125,6.0,6.0,65,0.00,,,0.12,,2013-06-19 12:22:00,
2013-06-19 07:34:00,61.0,49.0,30.11,SE,125,6.0,6.0,65,0.00,,,0.12,,2013-06-19 12:34:00,
2013-06-19 07:44:00,62.0,49.0,30.11,SW,217,6.0,8.0,63,0.00,,,0.04,,2013-06-19 12:44:00,
2013-06-19 07:52:00,62.0,49.0,30.11,South,191,0.0,6.0,62,0.00,,,0.04,,2013-06-19 12:52:00,
2013-06-19 08:12:00,64.0,49.0,30.11,NE,34,4.0,12.0,59,0.00,,,0.00,,2013-06-19 13:12:00,
2013-06-19 08:22:00,64.0,49.0,30.11,NE,34,4.0,12.0,59,0.00,,,0.00,,2013-06-19 13:22:00,
2013-06-19 13:33:00,81.0,52.0,30.05,SW,229,4.0,8.0,36,0.00,,,0.00,,2013-06-19 18:33:00,
2013-06-19 13:44:00,81.0,52.0,30.05,SW,229,4.0,8.0,36,0.00,,,0.00,,2013-06-19 18:44:00,
2013-06-19 15:52:00,85.0,49.0,30.02,SE,131,6.0,6.0,29,0.00,,,0.00,,2013-06-19 20:52:00,
2013-06-19 16:11:00,85.0,48.0,30.02,South,181,6.0,6.0,28,0.00,,,0.00,,2013-06-19 21:11:00,
2013-06-19 16:22:00,85.0,48.0,30.02,South,181,6.0,6.0,28,0.00,,,0.00,,2013-06-19 21:22:00,
2013-06-19 16:44:00,85.0,47.0,30.02,East,93,3.0,6.0,27,0.00,,,0.00,,2013-06-19 21:44:00,
2013-06-19 16:52:00,83.0,47.0,30.02,SE,130,9.0,9.0,29,0.00,,,0.00,,2013-06-19 21:52:00,
2013-06-19 17:02:00,84.0,48.0,30.02,ESE,121,9.0,9.0,29,0.00,,,0.00,,2013-06-19 22:02:00,
2013-06-19 17:11:00,84.0,48.0,30.02,ESE,102,4.0,9.0,29,0.00,,,0.00,,2013-06-19 22:11:00,
2013-06-19 17:22:00,83.0,47.0,30.02,ESE,102,4.0,4.0,29,0.00,,,0.00,,2013-06-19 22:22:00,
2013-06-19 17:34:00,83.0,47.0,30.02,ESE,102,4.0,4.0,29,0.00,,,0.00,,2013-06-19 22:34:00,
2013-06-19 17:43:00,84.0,48.0,29.99,SE,127,4.0,4.0,29,0.00,,,0.00,,2013-06-19 22:43:00,
2013-06-19 17:53:00,84.0,48.0,29.99,SE,127,4.0,4.0,29,0.00,,,0.00,,2013-06-19 22:53:00,
2013-06-19 18:02:00,87.0,48.0,29.99,SW,224,6.0,6.0,26,0.00,,,0.00,,2013-06-19 23:02:00,
2013-06-19 18:12:00,85.0,48.0,29.99,SE,126,6.0,10.0,28,0.00,,,0.00,,2013-06-19 23:12:00,
2013-06-19 18:23:00,83.0,48.0,29.99,South,189,0.0,8.0,30,0.00,,,0.00,,2013-06-19 23:23:00,
2013-06-19 18:33:00,83.0,48.0,29.99,South,189,0.0,8.0,30,0.00,,,0.00,,2013-06-19 23:33:00,
2013-06-19 19:01:00,82.0,47.0,29.99,South,180,6.0,6.0,30,0.00,,,0.00,,2013-06-20 00:01:00,
2013-06-19 21:02:00,77.0,50.0,29.99,ESE,120,6.0,6.0,39,0.00,,,0.00,,2013-06-20 02:02:00,
2013-06-19 21:34:00,76.0,51.0,29.99,SE,146,0.0,0.0,41,0.00,,,0.00,,2013-06-20 02:34:00,
2013-06-19 21:43:00,76.0,51.0,29.99,SE,146,0.0,0.0,41,0.00,,,0.00,,2013-06-20 02:43:00,
2013-06-19 21:52:00,76.0,51.0,29.99,SE,146,0.0,0.0,41,0.00,,,0.00,,2013-06-20 02:52:00,